Wind_Speed
18 18 16 13 12 10 9 11 8 5 4 4 8 9 9 9 11 11 14 16 16 16 16 16 14 12 13 13 11 10 10 10 10 11 10 9 8 8 8 7 6 5 5 5 6 5 7 9 11
20 19 17 14 14 11 9 12 9 5 6 7 8 10 10 9 12 12 13 14 15 15 16 17 16 15 16 15 13 11 10 9 8 7 7 8 8 7 6 5 3 2 2 3 4 5 7 8 10
21 20 17 16 16 13 10 12 10 8 8 10 9 9 9 9 9 12 11 12 13 13 14 14 14 15 16 16 15 14 12 11 10 9 8 7 6 7 8 8 9 8 7 7 8 9 9 10 11
23 22 19 19 18 14 11 13 11 12 11 13 11 9 10 9 8 10 10 9 10 11 11 11 12 13 14 15 15 14 14 14 14 14 14 14 12 10 8 7 8 8 10 11 12 13 14 14 15
25 25 23 23 22 16 14 14 13 13 15 17 15 11 10 10 9 9 8 7 7 7 7 8 10 11 12 13 14 14 15 16 17 17 17 16 16 16 15 14 14 13 13 14 15 15 16 17 17
28 28 25 23 23 19 17 15 14 15 16 18 18 15 12 11 10 9 8 6 5 4 4 5 6 8 10 11 12 14 15 16 17 18 19 20 19 19 19 19 19 19 18 17 18 18 19 20 21
28 27 25 24 24 22 19 17 16 18 19 20 21 17 14 13 11 9 8 7 5 3 1 2 4 6 8 10 12 13 14 15 17 19 20 21 21 21 21 21 21 21 22 22 23 23 23 24 25
27 27 25 26 27 25 22 21 18 18 20 21 22 21 17 17 14 11 9 7 6 5 4 4 5 7 9 11 12 14 16 17 17 17 19 21 23 24 24 24 24 25 25 26 27 28 28 28 29
30 29 27 29 29 29 23 22 20 18 20 21 24 23 21 20 16 13 11 10 9 8 8 8 9 10 11 13 15 17 18 20 22 21 21 22 23 24 26 28 29 29 30 30 31 31 31 32 32
33 31 31 30 30 31 27 23 21 19 21 19 23 24 23 24 20 18 16 14 13 12 13 13 14 15 15 17 18 20 21 22 24 25 26 25 26 26 27 28 29 31 33 34 34 35 35 36 36
36 35 34 33 33 34 32 25 23 20 20 20 22 26 26 25 23 22 21 18 18 17 16 18 19 20 20 22 23 24 26 27 27 28 28 28 29 29 29 31 31 32 33 36 38 39 40 40 40
40 38 37 36 33 36 36 31 24 20 22 24 23 24 27 27 25 25 24 23 21 20 20 22 24 25 25 25 26 27 28 29 30 30 31 31 32 32 33 33 34 34 35 38 41 42 42 43 43
42 41 39 38 38 37 38 36 31 24 26 25 26 27 28 28 28 27 26 26 23 21 22 25 26 27 27 28 29 30 31 31 33 33 33 32 33 35 35 35 35 36 38 41 43 44 44 44 45
43 42 42 40 40 40 41 40 35 31 30 29 29 28 30 31 31 28 28 27 25 25 25 27 26 26 27 28 29 30 31 32 34 35 35 35 36 36 36 36 37 38 41 44 45 44 44 44 46
45 43 43 42 40 42 41 43 36 33 35 32 30 30 30 31 32 29 28 28 28 27 29 30 29 28 28 30 31 32 32 32 34 36 36 37 38 38 37 38 39 41 45 46 46 45 46 47 47
43 45 45 41 39 42 44 43 35 37 37 36 33 31 32 34 33 30 31 30 29 28 30 32 31 28 28 29 30 32 34 35 36 37 39 39 40 42 43 43 44 48 48 47 45 46 47 46 46
43 42 41 41 41 44 44 44 39 40 37 38 37 34 33 34 34 32 32 30 28 29 31 32 29 27 29 33 35 36 35 34 37 41 42 42 43 45 46 49 52 52 49 48 47 48 48 47 48
42 46 42 39 41 44 45 42 41 43 39 39 38 36 35 38 35 31 30 29 29 31 31 29 27 30 34 33 32 34 38 40 43 45 46 47 48 49 50 51 52 51 50 49 50 48 47 48 49
49 39 43 40 40 43 44 44 42 43 42 39 39 36 37 39 35 32 30 31 32 32 32 30 34 36 39 40 43 45 47 49 51 52 52 52 52 52 53 51 49 49 50 52 49 48 48 49 49
46 44 43 46 44 40 40 40 41 43 42 40 40 40 40 40 37 34 34 34 35 35 35 35 37 41 41 45 49 50 51 54 57 57 57 57 54 51 49 49 49 50 49 48 49 50 50 51 51
41 40 37 41 44 43 42 43 40 43 45 44 44 42 43 41 39 39 39 39 39 39 39 40 38 42 45 52 53 52 55 59 59 58 58 56 53 50 50 50 49 48 48 49 49 50 51 52 53
44 42 42 38 41 47 43 50 43 42 46 47 46 44 45 44 43 43 42 43 42 42 43 43 42 45 50 54 55 57 60 61 59 57 54 52 51 50 48 48 49 48 49 49 50 51 53 54 54
44 42 42 45 47 49 47 49 45 43 46 49 48 46 45 46 46 46 46 46 46 46 46 45 47 51 54 58 60 63 61 57 56 54 52 51 50 50 49 48 47 49 50 51 53 54 55 56 56
46 43 41 40 41 47 46 47 53 46 44 47 46 46 46 47 48 49 49 48 48 48 48 48 50 52 57 60 63 62 60 54 53 53 52 50 50 50 49 49 50 50 52 53 54 55 56 57 58
50 45 44 44 46 46 46 42 46 42 43 44 46 47 48 48 49 50 49 50 49 49 51 51 52 54 58 60 61 60 58 57 58 57 54 52 53 52 51 50 52 53 53 55 56 57 58 59 60
47 47 47 49 50 49 53 48 44 46 43 44 45 47 47 48 48 49 50 50 50 51 51 52 56 58 60 60 59 59 60 60 58 56 54 53 52 52 52 52 53 54 55 56 57 59 60 62 62
54 55 50 49 52 53 52 54 49 43 44 43 47 48 47 48 48 48 49 51 52 52 54 56 59 61 61 60 59 59 58 57 55 54 54 54 54 54 54 55 55 55 56 58 59 61 62 62 62
56 51 51 53 55 55 55 51 50 50 46 44 43 46 48 48 49 49 49 51 52 55 58 63 63 62 58 56 56 57 57 56 54 54 54 54 55 57 57 57 57 57 59 61 61 62 62 62 60
54 54 51 50 49 51 53 54 50 48 50 52 53 53 50 49 48 47 48 52 57 62 62 61 59 58 57 56 57 56 55 53 53 53 55 56 56 57 57 57 58 59 61 62 63 63 63 60 58
49 53 54 54 53 49 48 52 53 47 48 51 51 49 48 48 50 52 56 59 60 59 58 57 57 57 55 55 53 51 51 52 55 57 56 55 56 57 57 58 60 61 62 63 63 62 61 59 56
Wind_Direction
220 228 233 235 240 250 266 265 274 276 245 196 150 137 123 112 105 105 95 95 91 92 88 87 93 101 99 95 87 85 76 61 46 43 44 47 56 71 80 78 70 56 36 17 14 351 321 315 309
223 227 232 233 242 250 245 252 259 245 230 208 169 141 126 117 106 105 97 93 87 81 77 75 73 70 69 67 72 76 80 80 71 60 45 30 24 25 29 30 41 23 0 329 318 311 307 302 303
223 227 227 236 242 250 235 245 254 248 215 215 189 156 142 137 115 108 104 96 89 84 79 73 70 66 61 57 53 50 47 42 41 43 40 30 18 10 1 353 348 341 327 316 311 307 301 293 288
224 228 230 238 247 242 227 242 246 237 213 218 198 177 161 150 136 121 115 107 97 89 82 70 62 56 49 45 43 38 35 32 27 22 19 18 18 12 357 339 329 323 317 313 309 308 307 303 300
231 231 233 239 246 236 226 236 243 232 211 207 218 199 190 175 164 144 139 121 107 91 78 64 52 44 38 34 28 21 18 15 11 10 6 6 6 3 359 354 346 334 323 314 308 303 299 297 297
238 238 236 234 239 234 233 237 241 237 225 222 219 211 206 201 190 173 164 150 137 110 80 56 42 28 22 16 14 9 5 4 359 356 354 352 351 351 349 345 342 339 334 329 324 319 316 312 309
238 240 234 232 239 246 244 244 237 238 229 224 227 221 220 219 212 199 187 183 184 176 157 8 3 0 354 352 352 353 351 349 347 345 343 342 340 338 337 337 335 333 332 329 326 324 323 320 319
240 241 241 241 243 247 246 250 244 239 237 228 231 231 229 226 226 226 219 223 222 228 254 285 308 316 321 323 328 330 330 333 333 329 329 329 330 330 329 327 326 324 323 322 322 321 321 321 319
244 246 248 248 254 258 249 249 243 228 233 234 231 237 237 236 236 238 239 239 248 256 264 274 284 291 298 304 306 310 315 319 319 321 322 319 318 320 320 321 321 320 318 317 315 314 314 314 314
246 248 252 254 258 262 260 256 250 243 234 232 231 239 242 246 243 246 247 246 250 259 271 278 282 286 289 292 295 301 304 306 310 312 315 315 312 308 307 309 310 314 314 313 311 310 309 310 310
245 249 253 255 258 263 262 254 248 247 240 236 226 231 241 245 248 251 253 253 253 257 261 267 275 283 286 288 293 296 298 300 302 304 306 307 306 304 302 300 302 305 309 310 309 308 307 308 310
248 249 253 256 255 261 262 259 252 245 235 241 235 233 241 245 247 252 257 261 261 264 270 275 279 281 284 290 295 295 296 297 299 300 302 303 302 301 301 299 298 299 305 308 307 305 306 306 307
249 251 255 256 256 256 259 259 259 246 243 240 242 240 241 244 246 251 256 259 263 266 269 272 277 283 288 291 293 296 299 300 300 301 301 301 300 299 298 296 295 296 302 304 304 302 303 304 304
249 251 253 256 257 256 255 256 254 255 251 247 247 246 250 250 249 251 256 260 262 265 266 269 273 280 285 289 291 293 295 298 299 300 301 300 297 296 294 294 295 296 298 298 299 299 300 300 300
249 251 253 254 257 258 257 253 257 252 252 250 250 251 253 254 255 256 260 264 268 270 273 275 276 281 287 290 292 295 298 300 301 301 300 299 297 293 291 288 289 292 297 296 296 297 298 299 299
251 251 253 256 258 259 257 250 254 253 250 251 252 253 253 253 256 257 259 263 269 272 274 277 281 285 285 289 294 295 299 302 301 300 300 300 298 294 292 290 291 294 295 293 294 295 296 296 295
250 255 259 257 256 257 256 252 252 252 252 249 249 253 256 259 259 260 264 268 269 269 270 274 282 289 293 293 290 293 298 301 304 304 302 298 294 291 290 291 293 294 293 292 294 294 293 293 293
254 252 256 260 255 254 255 255 250 251 250 249 252 254 257 259 258 261 265 267 267 266 268 272 278 283 290 293 295 297 300 304 304 302 300 296 292 290 290 292 293 293 293 292 293 292 291 291 292
247 250 251 258 261 255 256 257 250 249 251 249 251 255 257 260 261 261 260 261 264 268 272 274 275 279 287 294 293 294 297 301 303 303 300 297 293 291 292 292 291 290 291 292 292 291 291 291 292
261 260 258 255 257 255 254 257 254 248 246 243 242 246 251 256 258 259 260 262 264 269 274 275 279 282 290 295 298 296 297 299 300 300 299 298 294 291 290 291 291 291 290 289 289 290 290 292 293
255 262 259 255 250 252 250 251 253 249 247 241 241 244 250 254 254 255 258 262 266 269 273 277 278 286 292 294 294 294 297 299 298 298 297 295 292 290 290 291 291 290 290 289 289 290 291 293 293
262 261 260 259 256 250 250 249 249 252 249 244 240 241 246 250 252 256 259 262 266 270 273 277 280 289 294 293 291 294 298 297 296 295 294 292 291 290 290 290 291 290 289 290 290 291 291 291 291
257 259 257 256 256 254 251 254 243 251 249 247 244 242 244 249 253 255 259 261 264 267 269 275 282 288 291 292 292 296 297 296 295 294 292 290 289 289 289 289 289 289 289 290 290 289 291 291 292
253 257 257 258 259 256 252 253 255 248 252 251 248 247 246 247 250 253 257 261 263 266 270 275 277 282 289 290 291 293 294 291 291 291 290 289 288 287 286 287 288 288 288 288 288 288 289 290 291
250 253 257 257 259 261 257 251 256 255 249 249 250 250 250 250 252 254 257 260 262 265 270 272 276 281 285 287 289 290 288 288 288 289 289 288 287 286 285 286 286 287 287 287 287 288 289 291 292
251 249 249 251 255 260 257 255 251 257 256 251 250 250 250 252 253 254 256 259 262 263 267 273 278 282 284 287 286 286 286 287 287 288 287 286 285 285 287 287 287 286 285 286 287 288 290 291 291
246 247 249 252 257 258 260 258 254 258 260 256 253 254 253 253 253 257 258 260 263 267 272 276 281 281 283 283 285 287 287 287 287 286 285 286 286 286 287 287 286 286 287 288 289 290 291 291 292
244 244 247 249 252 255 258 261 261 256 259 260 257 253 253 255 259 262 265 268 271 273 275 277 280 280 282 283 284 285 287 286 285 286 286 287 287 287 287 286 287 288 289 290 290 291 291 291 290
245 247 250 250 251 254 257 258 261 260 258 261 261 261 260 260 263 266 270 273 275 278 278 279 280 282 283 284 284 285 284 285 286 286 286 286 286 286 287 288 289 289 290 291 291 290 290 289 288
245 245 247 246 244 248 256 258 260 262 260 259 262 264 263 264 268 273 276 277 277 278 277 278 281 282 283 284 284 284 285 286 287 287 287 287 287 289 290 290 291 291 291 291 290 289 288 289 288
Height
5864 5865 5867 5869 5873 5872 5872 5873 5873 5873 5874 5873 5873 5873 5873 5872 5871 5873 5871 5869 5868 5868 5867 5867 5866 5865 5864 5863 5863 5862 5862 5862 5861 5860 5860 5859 5859 5858 5857 5856 5855 5854 5854 5853 5852 5852 5852 5851 5851
5862 5864 5866 5868 5870 5871 5872 5871 5873 5873 5874 5874 5874 5873 5873 5873 5872 5872 5871 5870 5870 5870 5869 5869 5869 5868 5867 5866 5865 5864 5864 5863 5862 5861 5860 5859 5859 5858 5857 5857 5856 5855 5854 5853 5852 5851 5851 5850 5849
5860 5862 5865 5866 5867 5870 5871 5870 5872 5872 5873 5874 5875 5874 5873 5874 5873 5873 5872 5872 5871 5871 5870 5870 5870 5869 5868 5868 5867 5866 5866 5865 5864 5863 5862 5861 5860 5859 5858 5857 5857 5856 5854 5853 5852 5851 5850 5849 5848
5858 5861 5864 5864 5864 5868 5869 5869 5871 5871 5873 5873 5874 5874 5874 5874 5873 5873 5873 5873 5872 5872 5871 5871 5871 5870 5869 5869 5868 5868 5867 5866 5865 5864 5863 5862 5861 5860 5858 5857 5856 5854 5853 5852 5851 5849 5848 5847 5846
5856 5858 5861 5862 5862 5865 5867 5868 5869 5870 5871 5873 5873 5874 5874 5874 5874 5873 5873 5873 5872 5872 5872 5872 5872 5871 5871 5870 5869 5869 5868 5867 5867 5865 5864 5862 5861 5859 5858 5856 5855 5853 5852 5850 5849 5848 5846 5845 5843
5853 5855 5858 5859 5860 5862 5865 5866 5868 5868 5869 5871 5872 5873 5874 5874 5873 5872 5873 5872 5873 5873 5872 5872 5872 5872 5871 5871 5870 5870 5869 5868 5867 5866 5864 5863 5862 5860 5858 5856 5855 5853 5850 5849 5847 5845 5844 5842 5841
5849 5851 5855 5857 5857 5860 5863 5864 5865 5865 5867 5869 5870 5872 5873 5873 5873 5873 5872 5873 5872 5872 5872 5872 5872 5872 5872 5871 5871 5870 5869 5869 5868 5866 5865 5863 5861 5860 5858 5856 5854 5852 5849 5847 5845 5843 5841 5840 5838
5846 5848 5852 5854 5855 5857 5860 5861 5863 5864 5865 5866 5868 5870 5871 5872 5872 5872 5872 5872 5872 5872 5871 5871 5871 5871 5871 5871 5870 5870 5869 5868 5867 5866 5864 5863 5861 5859 5857 5855 5852 5850 5848 5846 5843 5841 5839 5837 5834
5842 5845 5848 5850 5851 5852 5857 5858 5860 5862 5863 5864 5865 5867 5869 5870 5871 5871 5870 5871 5871 5870 5870 5870 5870 5870 5870 5869 5869 5868 5868 5866 5865 5864 5863 5861 5859 5857 5855 5852 5850 5848 5846 5843 5841 5838 5836 5833 5831
5838 5842 5843 5847 5849 5849 5852 5854 5856 5859 5859 5861 5863 5863 5866 5867 5869 5869 5869 5869 5869 5869 5868 5868 5868 5868 5868 5867 5867 5866 5865 5864 5863 5861 5860 5858 5856 5854 5853 5850 5848 5845 5843 5841 5838 5835 5832 5829 5827
5835 5838 5839 5843 5845 5845 5847 5850 5852 5854 5856 5857 5859 5860 5860 5864 5866 5867 5866 5867 5867 5867 5867 5866 5865 5864 5864 5863 5863 5863 5862 5860 5859 5858 5856 5855 5853 5850 5848 5846 5844 5841 5839 5836 5834 5830 5827 5824 5821
5829 5832 5834 5838 5841 5841 5842 5845 5848 5850 5853 5852 5854 5856 5857 5859 5861 5862 5863 5864 5864 5864 5863 5862 5860 5859 5860 5859 5858 5857 5857 5856 5855 5854 5852 5851 5848 5845 5843 5840 5837 5835 5833 5830 5828 5825 5822 5819 5816
5822 5827 5828 5832 5835 5837 5838 5840 5843 5846 5848 5849 5849 5851 5852 5855 5857 5858 5859 5859 5861 5861 5860 5857 5856 5855 5856 5855 5854 5853 5851 5851 5849 5848 5847 5845 5843 5839 5836 5834 5831 5829 5827 5824 5821 5818 5815 5813 5810
5817 5820 5822 5825 5828 5830 5832 5835 5838 5840 5842 5844 5845 5846 5847 5848 5851 5853 5853 5855 5856 5857 5856 5854 5853 5853 5852 5851 5850 5849 5847 5845 5843 5842 5841 5839 5836 5834 5831 5828 5825 5822 5820 5817 5815 5812 5809 5806 5803
5810 5813 5815 5818 5821 5823 5826 5828 5834 5835 5835 5838 5840 5841 5841 5843 5844 5846 5847 5849 5851 5851 5849 5848 5848 5849 5848 5846 5844 5842 5841 5840 5838 5836 5833 5831 5829 5827 5824 5821 5819 5816 5813 5810 5806 5804 5801 5798 5795
5803 5806 5807 5813 5816 5816 5819 5822 5828 5827 5830 5832 5834 5835 5836 5837 5839 5841 5842 5844 5845 5844 5842 5841 5842 5843 5842 5840 5839 5837 5836 5834 5832 5830 5827 5825 5822 5818 5816 5814 5812 5809 5805 5801 5799 5796 5792 5789 5786
5795 5798 5802 5805 5808 5808 5811 5816 5820 5821 5823 5825 5828 5829 5830 5831 5833 5835 5836 5838 5838 5838 5837 5836 5836 5836 5835 5834 5833 5831 5830 5829 5826 5823 5820 5817 5815 5811 5808 5804 5802 5799 5796 5793 5791 5787 5784 5781 5777
5787 5789 5793 5797 5800 5800 5802 5808 5812 5813 5816 5818 5821 5823 5824 5823 5826 5829 5830 5831 5831 5831 5831 5831 5831 5829 5828 5826 5824 5824 5823 5821 5818 5814 5811 5808 5805 5800 5798 5795 5792 5789 5786 5783 5781 5777 5774 5772 5768
5776 5779 5784 5789 5790 5792 5794 5799 5804 5806 5809 5812 5815 5816 5815 5815 5820 5822 5823 5824 5824 5824 5824 5825 5824 5823 5821 5818 5817 5815 5814 5811 5808 5805 5802 5797 5794 5790 5787 5784 5782 5780 5777 5774 5770 5768 5764 5761 5759
5769 5772 5776 5779 5782 5784 5786 5791 5796 5798 5801 5803 5805 5806 5808 5809 5813 5815 5815 5816 5816 5816 5816 5816 5815 5814 5811 5810 5809 5807 5803 5800 5797 5794 5789 5786 5782 5779 5776 5773 5771 5769 5766 5764 5761 5757 5753 5750 5747
5761 5764 5766 5768 5772 5773 5777 5782 5786 5790 5792 5794 5796 5798 5799 5803 5805 5806 5807 5807 5807 5807 5807 5807 5805 5804 5802 5801 5800 5796 5793 5790 5786 5782 5778 5774 5771 5768 5765 5763 5760 5758 5756 5754 5751 5747 5743 5739 5736
5752 5756 5757 5760 5763 5765 5768 5771 5778 5781 5783 5786 5788 5790 5791 5793 5794 5796 5798 5798 5799 5799 5798 5798 5796 5795 5793 5791 5789 5786 5782 5779 5774 5770 5766 5763 5760 5758 5754 5752 5750 5747 5745 5743 5740 5736 5731 5727 5724
5744 5747 5748 5749 5752 5756 5760 5761 5771 5772 5776 5776 5778 5781 5783 5784 5785 5786 5787 5788 5789 5789 5788 5787 5786 5784 5783 5780 5777 5774 5770 5766 5763 5759 5755 5752 5750 5748 5744 5741 5739 5737 5734 5731 5727 5723 5719 5715 5711
5735 5739 5742 5742 5744 5745 5751 5754 5754 5766 5767 5768 5770 5772 5773 5774 5775 5776 5777 5778 5778 5778 5777 5776 5776 5773 5771 5768 5765 5762 5759 5755 5752 5749 5745 5742 5739 5736 5733 5731 5728 5725 5722 5718 5715 5711 5707 5703 5699
5727 5732 5735 5737 5736 5737 5742 5748 5749 5752 5757 5759 5760 5762 5763 5764 5765 5766 5767 5767 5767 5767 5766 5766 5764 5762 5759 5756 5753 5750 5747 5744 5740 5737 5734 5731 5728 5725 5722 5719 5716 5712 5709 5705 5701 5697 5694 5690 5686
5722 5724 5725 5725 5726 5729 5730 5735 5740 5741 5747 5749 5750 5751 5752 5753 5754 5754 5756 5756 5756 5755 5754 5753 5752 5748 5746 5743 5741 5737 5734 5731 5728 5725 5722 5719 5716 5713 5710 5707 5704 5700 5696 5692 5688 5684 5680 5675 5671
5710 5711 5718 5719 5719 5720 5721 5725 5732 5733 5735 5739 5739 5739 5741 5741 5743 5745 5746 5745 5745 5744 5742 5740 5737 5735 5733 5730 5728 5725 5722 5719 5715 5712 5710 5708 5705 5701 5698 5695 5691 5687 5683 5679 5675 5671 5666 5661 5657
5696 5703 5706 5707 5709 5711 5714 5717 5721 5725 5726 5727 5727 5727 5729 5731 5732 5733 5734 5734 5733 5731 5728 5726 5724 5722 5720 5717 5714 5712 5709 5707 5703 5701 5699 5696 5692 5689 5685 5681 5678 5674 5670 5666 5661 5656 5651 5647 5643
5689 5692 5698 5701 5703 5703 5705 5707 5711 5713 5716 5715 5713 5717 5719 5720 5721 5721 5721 5721 5719 5717 5715 5714 5712 5710 5707 5704 5702 5700 5697 5694 5691 5690 5687 5682 5679 5676 5672 5668 5664 5660 5656 5651 5646 5642 5637 5633 5629
5677 5682 5685 5687 5691 5694 5696 5699 5700 5703 5703 5703 5703 5704 5706 5706 5707 5708 5708 5706 5705 5705 5703 5701 5699 5697 5695 5692 5690 5688 5686 5683 5680 5676 5674 5670 5666 5662 5658 5655 5651 5646 5642 5637 5632 5628 5623 5619 5616